CAPE
0 0 0 0 0 0 0 0 0 0 0 0 0 0 0 0 0 0 0 0 0 0 0 0 0 0 0 2 7 15 20 20 24 29 38 29 35 17
0 0 0 0 0 0 0 0 0 0 0 1 0 0 0 0 0 0 0 0 0 0 0 0 0 0 0 2 3 6 9 11 14 24 29 26 13 23
0 0 0 0 0 0 0 0 0 0 1 0 0 0 0 0 0 0 0 0 0 0 0 0 0 0 0 1 1 2 2 2 8 13 18 21 21 39
0 0 0 0 0 0 0 0 0 0 0 0 0 0 0 0 0 0 0 0 0 0 0 0 0 0 0 2 2 2 3 6 7 8 10 22 14 7
0 0 0 0 0 0 0 0 0 0 0 0 0 0 0 0 0 0 0 0 0 0 0 0 0 0 0 0 0 0 0 0 1 1 3 2 3 4
0 0 0 0 0 0 0 0 0 0 0 0 0 0 0 0 0 0 0 0 0 0 0 0 0 0 0 0 0 0 0 0 0 1 3 3 2 2
0 0 0 0 0 0 0 0 0 0 0 0 0 0 0 0 0 0 0 0 0 0 0 0 0 0 0 0 0 0 0 0 1 2 3 3 2 2
0 0 0 0 0 0 0 0 0 0 4 0 0 0 0 0 0 0 0 0 0 0 0 0 0 0 0 0 0 0 0 0 0 2 3 1 1 1
0 0 0 0 0 0 0 0 0 0 0 0 0 0 0 0 0 0 0 0 0 0 0 0 0 0 0 0 0 0 0 0 0 0 0 0 0 0
0 0 0 0 0 0 0 0 0 0 0 0 0 0 0 0 0 0 2 3 0 0 0 0 0 0 0 0 0 0 0 0 0 1 0 0 0 0
0 0 0 0 0 0 0 0 0 0 0 0 0 0 0 0 0 1 1 1 0 0 0 1 0 0 0 0 0 0 0 0 0 0 0 0 0 0
0 0 0 0 0 0 0 1 1 0 0 0 0 0 0 0 0 0 1 2 0 0 0 0 0 0 0 0 1 0 0 0 0 0 0 0 0 10
0 0 0 0 0 0 0 1 0 0 0 0 0 0 0 0 0 2 1 0 0 0 0 0 0 0 1 0 0 0 0 1 4 5 2 1 2 1
0 0 0 0 0 0 0 0 0 0 0 0 0 0 0 1 2 1 0 0 0 0 0 1 1 1 1 2 0 0 0 2 7 7 8 2 1 1
2 2 0 0 0 0 0 0 0 2 1 1 0 0 0 1 0 0 0 0 0 0 0 0 0 0 1 2 2 0 0 4 6 2 1 2 1 2
2 1 0 1 0 0 0 1 2 3 1 1 0 1 2 0 0 0 0 0 0 0 0 0 0 0 0 0 0 0 2 7 6 3 1 0 4 7
11 4 0 1 1 1 0 0 2 2 1 1 1 1 0 0 0 0 0 0 0 0 0 0 0 0 0 0 0 1 7 2 3 1 0 1 2 2
1 1 3 2 0 1 1 1 1 1 1 0 1 1 0 0 0 1 0 0 0 0 0 0 0 0 0 0 0 3 3 3 2 2 0 0 3 4
1 1 2 2 0 1 1 1 1 1 0 1 1 0 1 0 0 0 1 0 0 0 0 0 0 0 1 0 0 0 1 1 1 2 2 0 3 4
0 1 2 2 1 1 1 1 1 0 1 1 1 1 0 0 1 0 0 0 0 0 0 0 0 0 0 1 1 0 0 1 1 1 1 1 3 0
1 0 1 2 3 3 1 1 0 0 1 1 1 1 0 0 0 0 0 0 0 0 0 0 0 0 0 0 2 3 1 0 1 1 0 1 3 2
1 1 1 0 1 3 2 0 1 1 1 2 2 1 0 0 0 0 0 0 0 0 0 0 0 0 0 1 3 2 1 1 0 0 0 1 1 2
0 0 0 0 0 0 0 3 1 1 1 1 1 1 0 0 0 0 0 0 0 0 0 0 0 0 0 0 0 1 1 0 0 1 2 0 0 0
CIN
-0 -0 -0 -0 -0 -0 -0 -0 -0 -0 -0 -0 -0 -0 -0 -0 -0 -0 -0 -0 -0 -0 -0 -0 -0 -0 -0 -1 -1 -1 -1 -2 -2 -2 -2 -1 -1 -1
-0 -0 -0 -0 -0 -0 -0 -0 -0 -0 -0 -2 -0 -0 -0 -0 -0 -0 -0 -0 -0 -0 -0 -0 -0 -0 -0 -1 -0 -1 -1 -1 -1 -1 -1 -1 -1 -1
-0 -0 -0 -0 -0 -0 -0 -0 -0 -0 -0 -0 -0 -0 -0 -0 -0 -0 -0 -0 -0 -0 -0 -0 -0 -0 -0 -1 -1 -0 -0 -1 -1 -1 -1 -2 -2 -1
-0 -0 -0 -0 -0 -0 -0 -0 -0 -0 -0 -0 -0 -0 -0 -0 -0 -0 -0 -0 -0 -0 -0 -0 -0 -0 -0 -0 -0 -1 -0 -0 -1 -0 -1 -1 -1 -1
-0 -0 -0 -0 -0 -0 -0 -0 -0 -0 -0 -0 -0 -0 -0 -0 -0 -0 -0 -0 -0 -0 -0 -0 -0 -0 -0 -0 -0 -0 -0 -0 -0 -0 -0 -0 -0 -1
-0 -0 -0 -0 -0 -0 -0 -0 -0 -0 -0 -0 -0 -0 -0 -0 -0 -0 -0 -0 -0 -0 -0 -0 -0 -0 -0 -0 -0 -0 -0 -0 -0 -0 -0 -0 -0 -0
-0 -0 -0 -0 -0 -0 -0 -0 -0 -0 -0 -0 -0 -0 -0 -0 -0 -0 -0 -0 -0 -0 -0 -0 -0 -0 -0 -0 -0 -0 -0 -0 -0 -0 -0 -0 -0 -0
-0 -0 -0 -0 -0 -0 -0 -0 -0 -2 -1 -0 -0 -0 -0 -0 -0 -0 -0 -0 -0 -0 -0 -0 -0 -0 -0 -0 -0 -0 -0 -0 -0 -0 -0 -0 -0 -0
-0 -0 -0 -0 -0 -0 -0 -0 -0 -0 -0 -0 -0 -0 -0 -0 -0 -0 -0 -0 -0 -0 -0 -0 -0 -0 -0 -0 -0 -0 -0 -0 -0 -0 -0 -0 -0 -0
-0 -0 -0 -0 -0 -0 -0 -0 -0 -0 -0 -0 -0 -0 -0 -0 -0 -0 -1 -1 -0 -0 -0 -0 -0 -0 -0 -0 -0 -0 -0 -0 -0 -1 -0 -0 -0 -0
-0 -0 -0 -0 -0 -0 -0 -0 -0 -0 -0 -0 -0 -0 -0 -0 -0 -1 -1 -1 -0 -0 -0 -0 -0 -0 -0 -0 -0 -0 -0 -0 -0 -0 -0 -0 -0 -0
-0 -0 -0 -0 -0 -0 -0 -0 -0 -0 -0 -0 -0 -0 -0 -0 -0 -0 -1 -1 -1 -0 -0 -0 -0 -0 -0 -0 -0 -0 -0 -0 -0 -0 -0 -0 -0 -0
-0 -0 -0 -0 -0 -0 -0 -0 -0 -0 -0 -0 -0 -0 -0 -0 -0 -1 -1 -0 -1 -0 -0 -0 -0 -0 -2 -0 -0 -0 -0 -0 -0 -0 -0 -0 -0 -0
-0 -0 -0 -0 -0 -0 -0 -0 -0 -0 -0 -0 -0 -0 -0 -1 -1 -1 -0 -0 -0 -0 -0 -0 -0 -1 -1 -1 -0 -0 -0 -1 -0 -0 -0 -0 -0 -0
-0 -0 -0 -0 -0 -0 -0 -0 -0 -0 -0 -0 -0 -0 -0 -1 -1 -0 -0 -0 -0 -0 -0 -0 -0 -0 -1 -1 -0 -0 -0 -1 -0 -0 -0 -0 -0 -0
-0 -0 -0 -0 -0 -0 -0 -0 -0 -0 -0 -0 -0 -0 -0 -0 -0 -0 -0 -0 -0 -0 -0 -0 -0 -0 -0 -0 -0 -0 -1 -0 -0 -0 -0 -0 -0 -0
-0 -0 -0 -0 -0 -0 -0 -0 -0 -0 -0 -0 -0 -0 -0 -0 -0 -0 -0 -0 -0 -0 -0 -0 -0 -0 -0 -0 -0 -1 -0 -0 -0 -0 -0 -0 -0 -0
-0 -0 -0 -0 -0 -0 -0 -0 -0 -0 -0 -0 -0 -0 -0 -0 -0 -1 -0 -1 -0 -0 -0 -0 -0 -0 -0 -0 -0 -0 -1 -0 -0 -0 -0 -0 -1 -0
-0 -0 -0 -0 -0 -0 -0 -0 -0 -0 -0 -0 -0 -0 -0 -0 -0 -0 -0 -1 -0 -0 -0 -0 -0 -0 -0 -0 -1 -0 -0 -0 -1 -0 -1 -0 -0 -0
-0 -0 -0 -0 -0 -0 -0 -0 -0 -0 -0 -0 -0 -0 -0 -0 -0 -0 -1 -0 -0 -0 -0 -0 -0 -0 -0 -0 -0 -0 -0 -0 -0 -0 -0 -0 -0 -0
-0 -0 -0 -0 -0 -0 -0 -0 -0 -0 -0 -0 -0 -0 -0 -0 -0 -0 -0 -0 -0 -0 -0 -0 -0 -0 -0 -0 -0 -0 -0 -0 -0 -0 -0 -0 -0 -0
-0 -0 -0 -0 -0 -0 -0 -0 -0 -0 -0 -0 -0 -0 -0 -0 -0 -0 -0 -0 -0 -0 -0 -0 -0 -0 -0 -0 -0 -0 -0 -0 -0 -0 -0 -0 -0 -0
-0 -0 -0 -0 -0 -0 -0 -0 -0 -0 -0 -0 -0 -0 -0 -0 -0 -0 -0 -0 -0 -0 -0 -0 -0 -0 -0 -0 -0 -0 -0 -0 -0 -1 -0 -0 -0 -0
Wind_Speed
25 26 28 28 28 27 27 29 33 41 41 38 35 30 30 30 34 35 35 36 38 37 36 37 37 38 39 40 42 44 44 45 45 45 45 46 46 46
25 26 26 27 28 27 26 28 29 33 42 36 34 32 31 32 32 33 33 34 32 33 34 35 36 37 39 40 42 44 45 45 45 44 44 44 43 44
24 25 26 27 27 26 26 27 28 30 38 36 33 31 30 30 31 30 30 30 30 30 32 33 36 38 39 40 40 40 40 40 41 42 43 44 44 44
25 25 26 26 27 27 27 27 28 30 32 37 33 32 29 30 30 30 29 28 29 30 31 33 37 36 35 35 35 34 35 35 35 35 38 41 43 43
24 25 26 27 28 28 27 28 28 31 29 31 32 30 28 28 29 28 28 28 28 29 30 32 32 33 34 35 32 32 31 31 34 35 36 39 41 43
25 25 25 27 27 28 28 27 30 30 28 28 29 29 28 27 27 29 29 28 30 31 29 28 26 32 31 30 28 25 27 30 34 36 36 36 39 41
25 25 26 25 25 27 28 29 28 28 28 28 28 27 27 28 29 28 27 30 31 29 28 30 35 34 29 26 24 24 29 35 37 37 36 36 38 39
29 29 27 26 27 27 27 26 26 27 28 26 26 26 25 27 26 25 27 30 33 29 34 35 32 32 28 26 27 32 36 37 36 35 34 36 38 39
30 31 30 28 27 28 27 26 26 24 22 23 24 23 24 25 23 23 24 26 30 34 34 37 32 29 27 27 28 33 32 32 32 31 29 32 36 36
32 31 30 29 28 28 27 26 27 23 21 20 19 20 21 22 19 20 24 25 26 28 27 36 29 31 31 29 27 27 29 34 34 33 34 35 35 37
33 31 30 30 29 26 27 27 26 25 22 19 18 19 19 17 16 20 22 27 30 32 27 25 32 36 34 26 21 25 35 36 36 35 33 35 35 40
36 34 31 30 28 26 26 26 27 25 22 19 18 19 17 16 15 15 19 24 28 32 24 31 34 35 30 22 25 30 33 36 36 32 31 34 35 36
38 37 33 29 27 27 25 24 24 23 21 19 19 20 18 17 16 16 16 20 24 21 22 27 29 32 26 30 27 28 30 36 31 28 28 29 32 32
40 38 35 31 28 26 24 23 20 20 19 18 19 20 18 18 17 16 16 17 19 16 18 19 21 24 23 23 33 26 32 29 25 25 28 31 33 31
39 38 34 31 28 25 23 21 18 18 18 17 18 19 17 19 19 17 16 16 18 17 16 16 16 18 15 12 16 21 27 22 25 26 29 31 27 21
39 37 34 30 26 24 23 20 17 17 16 16 18 18 18 18 17 16 18 20 20 20 19 16 16 16 13 7 10 12 13 21 29 28 26 23 19 19
39 35 30 25 23 21 18 17 18 17 15 16 18 17 17 17 17 15 16 20 19 21 21 20 19 15 10 3 9 10 14 19 24 19 23 21 18 17
35 30 27 23 19 15 13 16 18 17 15 15 16 16 16 16 16 14 14 17 18 21 21 22 24 26 22 15 8 11 15 17 22 21 20 20 17 16
29 26 25 19 14 12 12 15 17 17 14 13 15 15 15 15 13 13 12 15 16 19 19 21 22 23 24 24 16 11 15 17 2 22 22 20 19 18
31 24 21 15 12 12 14 17 20 17 13 13 13 13 13 11 11 11 10 13 15 18 19 20 20 18 17 20 21 12 10 13 23 22 22 21 20 19
35 33 30 23 19 16 16 20 17 15 14 13 12 12 11 8 9 9 10 12 15 16 18 21 22 15 9 12 14 14 13 14 20 23 22 20 19 18
34 33 32 30 29 24 21 22 19 17 17 14 13 12 10 7 8 8 9 11 13 14 18 21 22 19 15 15 18 22 19 15 15 20 20 18 17 18
35 33 32 31 29 29 30 24 23 21 19 16 14 12 9 8 8 9 10 10 12 15 17 20 20 19 17 17 18 21 21 19 19 18 19 18 17 16
Wind_Direction
332 334 335 337 335 334 333 333 331 329 329 334 332 335 332 330 329 328 326 324 322 321 320 318 316 313 309 306 301 295 292 288 287 287 285 285 282 281
332 333 334 335 334 335 334 332 331 329 327 333 332 332 332 331 330 329 328 327 326 324 323 320 317 314 310 305 299 291 288 288 288 287 285 283 282 280
331 331 331 334 334 334 334 332 331 331 328 330 332 334 332 331 332 333 332 331 331 329 327 324 319 314 309 304 300 297 298 296 292 288 285 281 279 279
326 328 329 332 330 331 331 330 330 330 328 327 332 333 333 334 334 334 335 335 333 333 331 327 318 315 311 308 307 308 306 304 302 296 290 284 280 279
325 326 327 328 328 329 329 328 330 331 329 328 330 333 334 336 335 336 336 337 338 336 334 330 326 317 312 311 314 312 312 310 305 300 294 287 281 278
323 324 325 324 326 327 327 326 328 329 328 328 329 331 333 335 336 336 336 339 338 339 340 339 336 322 320 319 319 320 318 314 306 300 295 291 285 279
323 323 323 322 323 324 326 326 327 327 327 327 328 330 332 334 334 336 336 337 339 341 344 342 330 324 325 325 326 324 318 308 305 301 298 293 288 283
320 321 321 320 320 321 321 321 322 323 323 324 326 327 330 332 335 336 336 337 336 343 338 339 336 331 330 328 324 319 312 309 309 308 303 295 286 282
318 318 318 319 318 320 319 319 321 318 317 321 322 324 328 332 335 335 337 337 336 335 337 333 340 337 333 327 326 318 320 324 322 315 309 299 289 286
317 316 315 316 317 318 319 319 321 321 320 320 319 323 327 331 334 335 334 335 338 341 344 334 347 338 332 326 328 327 330 325 321 315 305 299 295 291
316 314 312 312 313 315 315 316 318 319 320 316 315 320 323 327 330 333 333 333 333 336 346 349 343 334 331 331 337 330 322 325 319 313 309 304 300 293
315 312 309 306 309 311 311 312 314 316 319 321 322 322 323 325 328 329 332 332 333 333 352 344 340 338 341 345 333 328 329 323 322 323 320 310 307 302
313 312 311 307 303 306 306 308 310 316 316 317 320 322 325 326 329 331 332 333 333 338 344 347 345 340 344 333 334 338 335 328 334 334 331 330 321 313
312 311 310 306 303 303 304 303 304 311 314 314 316 317 321 324 327 329 332 335 337 339 344 349 348 349 348 343 320 345 336 345 347 343 336 325 319 316
314 310 307 304 302 301 298 300 300 308 307 308 310 312 317 323 325 328 332 338 340 343 347 352 354 353 355 352 351 352 346 0 350 346 337 301 289 267
319 315 312 305 302 302 302 299 298 301 302 302 305 312 315 320 323 326 327 333 338 343 350 356 0 359 358 358 360 3 15 3 339 319 293 283 264 265
321 319 314 311 307 303 301 303 306 307 298 302 302 308 310 315 320 324 327 329 336 341 346 355 1 7 5 5 12 26 21 12 359 272 291 289 270 278
324 320 318 311 305 303 307 310 311 308 303 305 301 305 307 311 317 321 327 330 335 338 345 350 352 352 2 10 45 33 21 20 332 283 283 285 271 279
326 323 322 316 305 302 305 313 313 314 306 308 307 307 309 312 313 318 327 333 337 340 348 350 353 358 0 340 5 43 23 20 285 288 288 286 271 270
334 328 326 322 324 325 320 318 317 314 309 307 308 308 310 313 314 319 330 335 338 341 347 346 351 8 17 2 343 34 54 36 353 293 291 283 272 262
337 334 334 336 335 332 328 321 319 315 313 311 308 308 309 310 311 321 331 336 336 343 346 337 340 11 44 38 21 18 34 29 356 310 299 289 286 280
335 332 330 328 329 328 327 321 318 316 312 308 306 307 307 306 307 318 329 336 339 342 339 334 336 353 20 24 8 338 3 25 28 334 323 316 295 285
334 330 329 327 325 322 317 319 313 311 309 306 301 302 304 303 305 314 324 334 336 336 335 332 339 349 2 13 11 352 333 354 351 351 313 305 307 307